Zurück zum Katalog

INTELSAT 605

AktivKommunikationGEO
NORAD 21653·PAYLOAD· XX

Gestartet Aug 14, 1991 von Guiana Space Centre

Loading…

TLE

AktuellSource: Space-Track

Epoche: Sep 14, 2026, 15:13 UTC

1 21653U 91055A   26257.63410530 -.00000290  00000-0  00000-0 0  9993
2 21653  13.6615  16.8535 0003284 216.2702 145.9653  0.99330107127821

Verfolge INTELSAT 605 in Echtzeit mit AllMySat

Download on the App Store